Regional Weather Roundup
Issued by NWS Sterling, VA

Home | Current Version | Previous Version | Graphics & Text | Print | Product List | Glossary On
Versions: 1 2 3 4 5 6 7 8 9 10 11 12 13 14 15 16 17 18 19 20 21 22 23 24 25 26 27
000
ASUS41 KLWX 150210
RWRLWX

REGIONAL WEATHER ROUNDUP
NATIONAL WEATHER SERVICE BALTIMORE MD/WASHINGTON DC
1000 PM EDT MON APR 14 2014

Note: "FAIR" indicates few or no clouds below 12,000 feet
with no significant weather and/or obstructions to visibility.
 TC=TEMPERATURE CELSIUS

 * =Non NWS site. Station does not report precipitation (e.g. rain,
    snow, etc.), thunder, or fog.

DCZ001-MDZ009-015-VAZ040>042-051-053>054-150300-
WASHINGTON METRO

CITY           SKY/WX    TMP DP  RH WIND       PRES   REMARKS
WASHINGTON NAT CLOUDY    71  55  56 S10       29.84R
DULLES         CLOUDY    71  51  49 S9        29.83R
ANDREWS AFB    CLOUDY    69  53  55 SE8       29.84S
FT BELVOIR     CLOUDY    72  53  51 SE5       29.84S
QUANTICO       CLOUDY    67  55  65 SW6       29.84F
COLLEGE PARK*  CLOUDY    73  52  46 S6        29.84S
LEESBURG*      CLOUDY    72  54  53 S10G17    29.83S
MANASSAS*      CLOUDY    72  54  53 S8        29.83S
GAITHERSBURG*  CLOUDY    72  52  49 S10G16    29.86S

$$

MDZ006>007-011-014-150300-
BALTIMORE METRO

CITY           SKY/WX    TMP DP  RH WIND       PRES   REMARKS
BWI AIRPORT    CLOUDY    66  55  67 SE6       29.84R
MD SCIENCE CTR   N/A     68  57  68 MISG      29.85S
MARTIN STATE   MOCLDY    66  61  82 SE17      29.89R
ANNAPOLIS      CLOUDY    63  56  78 S14       29.85S
FORT MEADE*    CLOUDY    64  54  68 SE6       29.87R

$$

MDZ012-015-019>023-150300-
MARYLAND EASTERN SHORE

CITY           SKY/WX    TMP DP  RH WIND       PRES   REMARKS
OCEAN CITY     CLOUDY    57  55  93 SW14G21   29.95S
SALISBURY      CLOUDY    67  58  72 S15       29.91S
BAY BRIDGE AP* CLOUDY    66  57  72 S15       29.86F
CAMBRIDGE*     CLOUDY    70  57  64 S10G17    29.89R

$$

MDZ017>025-150300-
SOUTHERN MARYLAND

CITY           SKY/WX    TMP DP  RH WIND       PRES   REMARKS
PATUXENT RIVER CLOUDY    61  53  75 SE7       29.87S
ST INIGOES     CLOUDY    65  55  70 SE10G17   29.87S
LEONARDTOWN*   CLOUDY    64  54  68 SE8       29.89S

$$

MDZ003>005-150300-
NORTH CENTRAL MARYLAND

CITY           SKY/WX    TMP DP  RH WIND       PRES   REMARKS
FREDERICK*     CLOUDY    70  54  56 S6        29.83S
HAGERSTOWN APT CLOUDY    70  52  52 S15       29.78S
WESTMINSTER*   CLOUDY    70  52  52 S10G16    29.83S

$$

MDZ501>502-150300-
WESTERN MARYLAND

CITY           SKY/WX    TMP DP  RH WIND       PRES   REMARKS
OAKLAND*       CLOUDY    55  54  94 S10       29.82R
CUMBERLAND*    CLOUDY    63  61  94 CALM      29.81S

$$

VAZ025>031-150300-
SHENANDOAH VALLEY

CITY           SKY/WX    TMP DP  RH WIND       PRES   REMARKS
WINCHESTER*    CLOUDY    70  52  52 S7        29.80S
STAUNTON*      CLOUDY    66  51  58 S5        29.84S

$$

WVZ021-048>050-054>055-150300-
EASTERN WEST VIRGINIA PANHANDLE

CITY           SKY/WX    TMP DP  RH WIND       PRES   REMARKS
MARTINSBURG    CLOUDY    71  51  49 S9        29.79S
PETERSBURG*    CLOUDY    71  58  64 S5        29.79S

$$

VAZ036>039-050-150300-
CENTRAL FOOTHILLS

CITY           SKY/WX    TMP DP  RH WIND       PRES   REMARKS
CHARLOTTESVILL MOCLDY    68  53  58 S8        29.82S
CULPEPER*      CLOUDY    68  52  56 CALM      29.83F

$$

VAZ055>057-150300-
NORTH AND CENTRAL PIEDMONT

CITY           SKY/WX    TMP DP  RH WIND       PRES   REMARKS
FREDERICKSBRG* CLOUDY    73  55  53 S9        29.83S
STAFFORD*      CLOUDY    72  55  54 S5        29.87S

$$

NCZ024-NYZ072-PAZ021-071-VAZ022-071-150300-
OTHER REGIONAL OBSERVATIONS

CITY           SKY/WX    TMP DP  RH WIND       PRES   REMARKS
NEW YORK CITY  CLOUDY    63  52  67 S9G18     29.91S
PHILADELPHIA   CLOUDY    68  55  63 S16       29.87F
PITTSBURGH     CLOUDY    62  55  77 S5        29.70S
ROANOKE        LGT RAIN  68  54  60 S8        29.85R
RICHMOND       CLOUDY    69  60  73 S12       29.88R
RALEIGH        CLOUDY    65  60  84 S8        29.90S

$$

ANZ530>537-150300-
MARINE OBSERVATIONS

STATION/POSITION TIME  TEMP    WIND        PRES
                       AIR SEA DIR/SP/G
                 (UTC) (F)     (DEG/KT/KT) (MB)
THOMAS PT LIGHT  0200   60 52  170/ 14/ 15 1011.4F
BALT KEY BRIDGE  0200   66     160/ 18/ 19 1010.1S
COVE POINT       0200   57     180/ 18/ 19 1011.4F
LEWISETTA        0200   65 57  160/  8/  9 1011.5F
SOLOMONS ISLAND  0200      54                N/A
PINEY POINT      0200          160/ 12/ 12   N/A

$$




USA.gov is the U.S. government's official web portal to all federal, state and local government web resources and services.